www.pogodaiklimat.ru

Погода и климат >> Архив погоды >> Мексика >> Puerto Angel


ПОГОДА в Puerto Angel

  • Прогноз погоды в Puerto Angel
  • Монитор погоды в Puerto Angel
  • Климат города

АРХИВ ПОГОДЫ в Puerto Angel

Время (UTC), дата Ветер
(напр.,м/с)
 
Видим.   Явления Облачность Т
(С)
Тd
(С)
f
(%)
Тe
(С)
Тes
(С)
Комфортность P
(гПа)
Po
(гПа)
Тmin
(С)
Tmax
(С)
R
(мм)
R24
(мм)
S
(см)
12 11.10 В 1 30 км 6/1 600 м
[Cu med, cong Ac und]
+23.4 +20.8 85 +31 +31 очень
душно
1011.5 1006.6 +22.0 +29.0
15 11.10 СВ 1 30 км 9/1 600 м
[Cu med, cong Ac und Cs]
+26.8 +23.8 84 +37 +41 очень
душно
1012.6 1007.6
18 11.10 В 1 30 км 10/3 600 м
[Cu med, cong Ac und]
+26.4 +23.1 82 +35 +40 очень
душно
1013.3 1008.3 +22.0 +29.0
21 11.10 В 1 30 км {морось} 10/1 600 м
[Cu med, cong Ac und Cs]
+26.4 +23.1 82 +35 +41 очень
душно
1011.9 1007.0 0.4
00 12.10 В 1 30 км {морось} 10/1 600 м
[Cu med, cong Ac und Cs]
+26.6 +23.6 84 +36 +36 очень
душно
1012.2 1007.2 0.4
03 12.10 СВ 2 20 км 10/5 600 м
[Cb cap Ci ing]
+25.4 +24.0 92 +35 +35 очень
душно
1014.0 1009.0
06 12.10 СВ 2 20 км {морось} 10/6 600 м
[Cb cap Ci ing]
+25.0 +23.6 92 +34 +34 очень
душно
1014.7 1006.7 0.2
09 12.10 СВ 2 20 км 6/3 600 м
[Cb cap Cs]
+24.8 +22.9 89 +33 +33 очень
душно
1013.5 1008.5
12 12.10 СВ 2 20 км {морось} 8/5 600 м
[Cb cap Cs]
+24.4 +22.7 90 +32 +32 очень
душно
1013.1 1008.1 1
15 12.10 Ю 3 20 км 9/9 600 м
[]
+26.4 +23.1 82 +35 +36 очень
душно
1014.1 1009.2
18 12.10 Ю 4 20 км 10/3 600 м
[Cb cap Ac As]
+24.4 +23.6 95 +33 +35 очень
душно
1015.1 1010.1 10
21 12.10 В 2 30 км слабая морось {дождь} 10/4 600 м
[Cu med, cong Ac und]
+25.2 +24.9 98 +36 +38 очень
душно
1013.0 1008.0 29
00 13.10 С 2 30 км {дождь, морось} 10/0 600 м
[Cu med, cong Ac cuf Cs]
+24.4 +23.9 97 +33 +33 очень
душно
1013.1 1008.1 36
03 13.10 С 2 30 км слабая морось 10/1 600 м
[Cu med, cong Ac und]
+24.0 +23.7 98 +33 +33 очень
душно
1013.5 1008.6 1
06 13.10 С 2 30 км {морось} 10/4 600 м
[Cu med, cong Ac und]
+24.0 +23.7 98 +33 +33 очень
душно
1014.1 1009.1 1
09 13.10 С 2 30 км 10/3 600 м
[Cu med, cong Ac und]
+23.2 +22.9 98 +32 +32 очень
душно
1013.5 1008.5
12 13.10 С 3 20 км 10/3 600 м
[Cb cap Ac As]
+23.4 +22.8 96 +33 +33 очень
душно
1013.2 1008.2 +22.8 +29.0
15 13.10 С 1 30 км 5/1 600 м
[Cu med, cong Ac As Cs]
+27.4 +24.1 82 +38 +43 очень
душно
1013.4 1008.4
18 13.10 З 3 30 км 4/1 600 м
[Cu med, cong Ac As Cs]
+29.8 +25.2 76 +43 +54 опасность
перегрева
1013.4 1008.4 +22.8 +30.0
21 13.10 З 3 30 км 5/1 600 м
[Cu med, cong Ac As Cs]
+30.6 +25.8 76 +46 +52 опасность
перегрева
1011.9 1007.0
00 14.10 З 3 30 км 6/1 600 м
[Cu med, cong Ac As]
+28.0 +25.3 85 +41 +41 опасность
перегрева
1012.3 1007.4 +22.8 +31.0
03 14.10 СЗ 2 20 км {морось} 10/6 600 м
[Cb cap Ci ing]
+25.4 +24.6 95 +36 +36 очень
душно
1013.2 1008.3 0.4
06 14.10 СЗ 3 20 км 10/8 600 м
[Cb cap Ci ing]
+25.2 +23.8 92 +34 +34 очень
душно
1013.2 1008.2 +31.0
12 14.10 СЗ 3 20 км 6/1 600 м
[Cu med, cong Ac und]
+25.0 +22.8 88 +33 +33 очень
душно
1011.6 1006.6 +24.4 +31.0
15 14.10 З 2 20 км 8/1 600 м
[Cu med, cong Ac und]
+27.0 +23.7 82 +37 +40 очень
душно
1013.0 1008.0
18 14.10 З 3 20 км 5/1 600 м
[Cu med, cong Cs]
+29.0 +25.5 81 +43 +55 опасность
перегрева
1013.0 1008.1 +24.4 +30.0
12 15.10 С 2 30 км ясно +25.0 +22.8 88 +33 +33 очень
душно
1011.4 1006.4 +24.0 +31.0
15 15.10 С 2 30 км 1/1 600 м
[Cu med, cong]
+28.0 +23.9 78 +39 +44 очень
душно
1012.4 1007.4
18 15.10 Ю 2 30 км 8/3 600 м
[Cu med, cong Ac As Cs]
+31.6 +26.0 72 +47 +55 опасность
перегрева
1012.6 1007.7 +24.0 +32.6
21 15.10 Ю 2 30 км 9/4 600 м
[Cb cap Ac As]
+30.6 +26.1 77 +46 +49 опасность
перегрева
1010.7 1005.9
00 16.10 ЮЗ 2 30 км 10/4 600 м
[Cb cap Ac As]
+28.2 +26.1 88 +42 +42 опасность
перегрева
1010.7 1005.8 +24.0 +32.6
03 16.10 С 1 30 км слабая морось {дождь} 10/4 600 м
[Cb cap Ac und]
+25.4 +24.0 92 +35 +35 очень
душно
1010.9 1006.0 27
06 16.10 С 1 30 км 10/3 600 м
[Cu med, cong Ac und]
+25.0 +23.6 92 +34 +34 очень
душно
1011.2 1006.3 +32.6
09 16.10 С 1 30 км 10/3 600 м
[Cu med, cong Ac und]
+24.4 +22.4 89 +32 +32 очень
душно
1010.5 1005.6
12 16.10 В 1 30 км 5/1 600 м
[Cu med, cong Ac und]
+24.0 +22.0 89 +31 +31 очень
душно
1009.6 1004.7 +22.8 +32.6
15 16.10 ЮВ 1 30 км 8/1 600 м
[Cu med, cong Ac As Cs]
+27.0 +24.3 85 +38 +42 очень
душно
1011.1 1006.1
00 17.10 ЮЗ 2 30 км 10/3 600 м
[Cu med, cong Ac As Cs]
+28.0 +25.3 85 +41 +41 опасность
перегрева
1009.1 1004.3 +22.8 +32.0
12 17.10 С 3 20 км 6/1 750 м
[Cb cap Cs]
+24.2 +22.8 92 +32 +32 очень
душно
1009.3 1004.3 +23.4 +32.0
15 17.10 С 1 30 км 10/3 600 м
[Cu med, cong Ac As Cs]
+25.8 +23.6 88 +35 +38 очень
душно
1011.0 1006.0
18 17.10 В 1 30 км 10/3 600 м
[Cu med, cong Ac As Cs]
+28.0 +24.8 83 +40 +47 очень
душно
1011.5 1006.6 +23.4 +29.2
21 17.10 В 3 30 км слабый дождь 10/6 600 м
[Cb cap Ac und]
+26.2 +25.4 95 +38 +39 очень
душно
1010.3 1005.4 4
00 18.10 СВ 2 30 км 10/3 600 м
[Cu med, cong Ac As]
+24.8 +23.7 94 +34 +34 очень
душно
1009.8 1004.9 +22.8 +29.2
03 18.10 С 1 30 км слабая морось {дождь} 10/4 600 м
[Cu med, cong Ac und]
+24.4 +24.1 98 +34 +34 очень
душно
1010.8 1005.9 2
06 18.10 СВ 1 30 км 10/3 600 м
[Cu med, cong Ac und]
+24.0 +23.5 97 +32 +32 очень
душно
1010.9 1005.9 +29.2
09 18.10 СЗ 1 30 км 10/3 600 м
[Cu med, cong Ac und]
+23.6 +22.8 95 +31 +31 очень
душно
1009.8 1004.8

 

Местоположение метеостанции Puerto Angel (Мексика): широта 15.68 долгота -96.48 высота над уровнем моря 46 м.

В архиве по умолчанию представлена погода в Puerto Angel за последнюю неделю. Архивные данные за месяц целиком и за предыдущие месяцы, начиная с января 2011 года, Вы можете получить, выбрав интересующий диапазон дат из раскрывающегося списка и нажав кнопку "Ввод!".


*Определитесь, кто Вы:
робот инопланетянин человек

Внимание! Время в таблицах - всемирное. Для получения местного времени необходимо прибавить поправку, которая в Puerto Angel равна -6 ч.

Смотрите также архив погоды в соседних городах и на ближайших метеорологических станциях:

Погода в Salina Cruz (Мексика) (149 км)
Погода в Oaxaca (Мексика) (154 км)
Погода в Huajuapan De Leon (Мексика) (273 км)
Погода в Arriaga (Мексика) (283 км)
Погода в Coatzacoalcos (Мексика) (350 км)
Погода в Orizaba (Мексика) (359 км)
Погода в Cordoba-In-Veracruz (Мексика) (361 км)
Погода в Tuxtla Gutierrez (Мексика) (377 км)
Погода в Chilpancingo (Мексика) (383 км)
Погода в Verakruz (Мексика) (388 км)

Пояснения к столбцам:

Ветер - указаны скорость ветра в м/с - средняя за 10 мин, порывы в срок и между сроками (в фигурных скобках) и направление, откуда дует ветер: С - северный, СВ - северо-восточный, В - восточный, ЮВ - юго-восточный, Ю - южный, ЮЗ - юго-западный, З - западный, СЗ - северо-западный.
Видимость - горизонтальная дальность видимости в метрах или километрах. При видимости от 1 до 10 км при отсутствии осадков обычно наблюдается дымка, при ухудшении видимости до 1 км и менее - туман. В сухую погоду видимость может ухудшаться дымом, пылью или мглою.
Явления - указаны атмосферные явления, наблюдавшиеся в срок или в последний час перед сроком; фигурными скобками обозначены явления, наблюдавшиеся между сроками (за 1-3 часа до срока); квадратными скобками обозначены град или гололедные отложения с указанием их диаметра в мм.
Облачность - указаны через наклонную черту общая и нижняя облачность в баллах и высота нижней границы облаков в метрах; квадратными скобками обозначены формы облаков: Ci - перистые, Cs - перисто-слоистые, Cc - перисто-кучевые, Ac - высококучевые, As - высокослоистые, Sc - слоисто-кучевые, Ns - слоисто-дождевые, Cu - кучевые, Cb - кучево-дождевые. Подробнее классификацию облаков см. в Атласе облаков (PDF).
T - Температура воздуха - температура, измеренная на высоте 2 м над землей.
Td - Температура точки росы - температура, при понижении до которой содержащийся в воздухе водяной пар достигнет насыщения.
f - Относительная влажность воздуха - влажноcть воздуха, измеренная на высоте 2 м над землей.
Te - Эффективная температура - температура, которую ощущает одетый по сезону человек в тени. Характеристика душности погоды. При расчете учитывается влияние влажности воздуха и скорости ветра на теплоощущения человека.
Tes - Эффективная температура на солнце - температура, которую ощущает человек, с поправкой на солнечный нагрев. Характеристика знойности погоды. Зависит от высоты солнца над горизонтом, облачности и скорости ветра. Ночью, в пасмурную погоду, а также при ветре 12 м/с и более поправка равна нулю.
P - Атмосферное давление - приведенное к уровню моря атмосферное давление.
Po - Атмосферное давление - измеренное на уровне метеостанции атмосферное давление.
Tmin - Минимальная температура - минимум температуры воздуха на высоте 2 м над землей.
Tmax - Максимальная температура - максимум температуры воздуха на высоте 2 м над землей.
R - Количество осадков - Количество выпавших осадков за период времени, мм. При наведении курсора мыши на число - период времени, за который выпало указанное количество осадков.
R24 - Количество осадков - Количество выпавших осадков за 24 часа, мм.
S - Снежный покров - Высота снежного покрова, см. При наведении курсора мыши на число - состояние снежного покрова и степень покрытия местности в баллах.